Weather History for Springfield, OH

Change the Weather History Date:

Sunday, June 30, 2013

  Actual Average (KDAY) Record (KDAY)
Temperature  
Mean Temperature 70 °F 74 °F  
Max Temperature 79 °F 83 °F 98 °F (1953)
Min Temperature 61 °F 64 °F 46 °F (1943)
Degree Days  
Heating Degree Days 0 0  
Month to date heating degree days 22  
Since 1 June heating degree days 22  
Since 1 July heating degree days 5642  
Cooling Degree Days 5 9  
Month to date cooling degree days 190  
Year to date cooling degree days 260  
Since 1 June cooling degree days 190  
Growing Degree Days 20 (Base 50)    
Moisture  
Dew Point 65 °F    
Average Humidity 91    
Maximum Humidity 100    
Minimum Humidity 62    
Precipitation  
Precipitation 0.03 in 0.13 in 2.02 in (1983)
Month to date precipitation 4.17  
Year to date precipitation 21.21  
Snow  
Snow 0.00 in 0.00 in 0.00 in ()
Month to date snowfall 0.0  
Since 1 June snowfall 0.0  
Since 1 July snowfall 23.3  
Snow Depth -    
Sea Level Pressure  
Sea Level Pressure 29.78 in    
Wind  
Wind Speed 6 mph (ENE)    
Max Wind Speed 14 mph    
Max Gust Speed -    
Visibility 4 miles    
Events Rain    
T = Trace of Precipitation, MM = Missing Value Source: NWS Daily Summary

Daily Weather History Graph

Daily Weather History Graph

Search for Another Location

Airport:

Trip Planner

Search our weather history database for the weather conditions in past years. The results will help you decide how hot, cold, wet, or windy it might be!

Date:

Astronomy

Jun. 30, 2013 Rise Set
Actual Time 6:10 AM EDT 9:07 PM EDT
Civil Twilight 5:37 AM EDT 9:40 PM EDT
Nautical Twilight 4:56 AM EDT 10:21 PM EDT
Astronomical Twilight 4:08 AM EDT 11:09 PM EDT
Moon 1:08 AM EDT (6/30) 2:21 PM EDT (6/30)
Length of Visible Light 16h 02m
Length of Day
14h 57m
Last Quarter, 45% of the Moon is Illuminated
Jun 30
Last Quarter
Jul 8
New
Jul 15
First Quarter
Jul 22
Full
Jul 29
Last Quarter

Hourly Weather History & Observations

Time (EDT) Temp. Dew Point Humidity Pressure Visibility Wind Dir Wind Speed Gust Speed Precip Events Conditions
12:05 AM 62.6 °F 62.6 °F 100% 29.71 in 3.0 mi ENE 5.8 mph - N/A   Scattered Clouds
12:56 AM 63.0 °F 63.0 °F 100% 29.70 in 6.0 mi East 4.6 mph - N/A   Overcast
1:56 AM 61.9 °F 61.9 °F 100% 29.70 in 4.0 mi ESE 4.6 mph - N/A   Clear
2:56 AM 61.9 °F 61.9 °F 100% 29.70 in 5.0 mi ESE 4.6 mph - N/A   Clear
3:56 AM 61.9 °F 61.9 °F 100% 29.69 in 4.0 mi ESE 5.8 mph - N/A   Clear
4:56 AM 61.9 °F 61.9 °F 100% 29.70 in 5.0 mi ENE 4.6 mph - N/A   Mostly Cloudy
5:24 AM 62.6 °F 62.6 °F 100% 29.72 in 6.0 mi ESE 3.5 mph - N/A   Mostly Cloudy
5:56 AM 63.0 °F 63.0 °F 100% 29.72 in 5.0 mi ENE 5.8 mph - N/A   Mostly Cloudy
6:13 AM 62.6 °F 62.6 °F 100% 29.74 in 2.5 mi Variable 3.5 mph - 0.01 in Rain Light Rain
6:25 AM 62.6 °F 62.6 °F 100% 29.74 in 3.0 mi ENE 4.6 mph - 0.02 in Rain Light Rain
6:37 AM 64.4 °F 64.4 °F 100% 29.75 in 1.8 mi ENE 5.8 mph - 0.02 in   Overcast
6:56 AM 63.9 °F 63.9 °F 100% 29.74 in 1.5 mi ENE 5.8 mph - 0.02 in   Overcast
7:08 AM 64.4 °F 64.4 °F 100% 29.75 in 1.0 mi NE 5.8 mph - N/A   Overcast
7:32 AM 64.4 °F 64.4 °F 100% 29.76 in 0.8 mi NNE 6.9 mph - N/A   Overcast
7:43 AM 64.4 °F 64.4 °F 100% 29.77 in 1.2 mi East 4.6 mph - N/A   Overcast
7:56 AM 63.9 °F 63.9 °F 100% 29.75 in 1.2 mi ENE 5.8 mph - N/A   Overcast
8:05 AM 64.4 °F 64.4 °F 100% 29.77 in 1.5 mi ENE 5.8 mph - N/A   Overcast
8:56 AM 64.9 °F 64.9 °F 100% 29.77 in 1.8 mi East 5.8 mph - N/A   Overcast
9:03 AM 64.4 °F 64.4 °F 100% 29.78 in 2.0 mi East 6.9 mph - N/A   Overcast
9:41 AM 66.2 °F 64.4 °F 94% 29.79 in 3.0 mi East 5.8 mph - N/A   Overcast
9:56 AM 65.8 °F 64.9 °F 97% 29.78 in 2.5 mi East 5.8 mph - N/A   Overcast
10:56 AM 66.9 °F 65.8 °F 96% 29.79 in 2.5 mi East 5.8 mph - N/A   Overcast
11:04 AM 68.0 °F 66.2 °F 94% 29.80 in 3.0 mi Variable 5.8 mph - N/A   Overcast
11:16 AM 69.8 °F 66.2 °F 88% 29.81 in 4.0 mi Variable 5.8 mph - N/A   Overcast
11:37 AM 71.6 °F 66.2 °F 83% 29.80 in 5.0 mi Variable 5.8 mph - N/A   Overcast
11:56 AM 72.0 °F 66.9 °F 84% 29.79 in 5.0 mi ENE 9.2 mph - N/A   Haze
12:25 PM 75.2 °F 68.0 °F 78% 29.80 in 6.0 mi ESE 8.1 mph - N/A   Haze
12:56 PM 75.9 °F 66.9 °F 74% 29.79 in 6.0 mi East 8.1 mph - N/A   Haze
1:56 PM 77.0 °F 65.8 °F 68% 29.79 in 7.0 mi Variable 5.8 mph - N/A   Clear
2:56 PM 79.0 °F 65.8 °F 64% 29.78 in 7.0 mi East 6.9 mph - N/A   Scattered Clouds
3:56 PM 79.0 °F 64.9 °F 62% 29.78 in 7.0 mi Calm Calm - N/A   Mostly Cloudy
4:56 PM 73.9 °F 64.9 °F 73% 29.80 in 6.0 mi NNE 13.8 mph - N/A   Haze
5:28 PM 71.6 °F 68.0 °F 88% 29.83 in 2.0 mi NE 8.1 mph - 0.01 in Rain Light Rain
5:38 PM 71.6 °F 66.2 °F 83% 29.82 in 3.0 mi NE 10.4 mph - 0.01 in Rain Light Rain
5:56 PM 70.9 °F 68.0 °F 91% 29.80 in 6.0 mi ENE 11.5 mph - 0.01 in Rain Light Rain
6:56 PM 72.9 °F 66.9 °F 82% 29.82 in 7.0 mi NNE 9.2 mph - 0.00 in   Clear
7:56 PM 72.9 °F 65.8 °F 79% 29.83 in 7.0 mi NE 11.5 mph - N/A   Scattered Clouds
8:56 PM 70.9 °F 64.9 °F 81% 29.84 in 7.0 mi NE 8.1 mph - N/A   Partly Cloudy
9:56 PM 68.9 °F 65.8 °F 90% 29.86 in 8.0 mi NE 6.9 mph - N/A   Scattered Clouds
10:56 PM 68.0 °F 63.0 °F 84% 29.87 in 9.0 mi NE 12.7 mph - N/A   Scattered Clouds
11:56 PM 66.9 °F 61.9 °F 84% 29.87 in 9.0 mi NE 8.1 mph - N/A   Mostly Cloudy